TimeCDT,TemperatureF,Dew PointF,Humidity,Sea Level PressureIn,VisibilityMPH,Wind Direction,Wind SpeedMPH,Gust SpeedMPH,PrecipitationIn,Events,Conditions,WindDirDegrees,DateUTC
12:53 AM,66.0,61.0,84,30.21,10.0,East,5.8,-,N/A,,Clear,100,2012-10-14 05:53:00
1:53 AM,66.0,62.1,87,30.20,10.0,ESE,4.6,-,N/A,,Clear,110,2012-10-14 06:53:00
2:53 AM,64.0,61.0,90,30.19,10.0,East,5.8,-,N/A,,Clear,90,2012-10-14 07:53:00
3:53 AM,64.0,62.1,93,30.18,9.0,East,5.8,-,N/A,,Clear,100,2012-10-14 08:53:00
4:53 AM,63.0,62.1,97,30.18,7.0,East,5.8,-,N/A,,Clear,90,2012-10-14 09:53:00
5:53 AM,63.0,62.1,97,30.18,6.0,East,5.8,-,N/A,,Clear,90,2012-10-14 10:53:00
6:09 AM,62.6,62.6,100,30.19,6.0,East,5.8,-,N/A,,Scattered Clouds,100,2012-10-14 11:09:00
6:21 AM,62.6,62.6,100,30.19,6.0,East,6.9,-,N/A,,Mostly Cloudy,100,2012-10-14 11:21:00
6:53 AM,63.0,61.0,93,30.18,4.0,East,5.8,-,N/A,,Overcast,100,2012-10-14 11:53:00
7:53 AM,64.0,62.1,93,30.19,7.0,East,5.8,-,N/A,,Mostly Cloudy,100,2012-10-14 12:53:00
8:02 AM,64.4,62.6,94,30.20,9.0,ESE,5.8,-,N/A,,Scattered Clouds,110,2012-10-14 13:02:00
8:53 AM,69.1,64.0,84,30.19,10.0,SE,4.6,-,N/A,,Clear,130,2012-10-14 13:53:00
9:53 AM,73.9,66.0,76,30.21,10.0,Variable,6.9,-,N/A,,Clear,0,2012-10-14 14:53:00
10:53 AM,75.9,66.0,71,30.21,10.0,ESE,4.6,-,N/A,,Mostly Cloudy,110,2012-10-14 15:53:00
11:16 AM,78.8,66.2,65,30.22,10.0,SSE,6.9,-,N/A,,Mostly Cloudy,160,2012-10-14 16:16:00
11:53 AM,79.0,64.0,60,30.19,10.0,SSW,4.6,-,N/A,,Scattered Clouds,210,2012-10-14 16:53:00
12:53 PM,81.0,64.0,56,30.17,10.0,West,6.9,-,N/A,,Mostly Cloudy,260,2012-10-14 17:53:00
1:53 PM,81.0,62.1,52,30.14,10.0,Calm,Calm,-,N/A,,Mostly Cloudy,0,2012-10-14 18:53:00
3:53 PM,82.9,62.1,49,30.09,10.0,NNE,4.6,-,N/A,,Partly Cloudy,20,2012-10-14 20:53:00
4:53 PM,80.1,62.1,54,30.08,10.0,Calm,Calm,-,N/A,,Clear,0,2012-10-14 21:53:00
5:53 PM,75.0,66.0,73,30.06,10.0,Calm,Calm,-,N/A,,Clear,0,2012-10-14 22:53:00
6:53 PM,72.0,64.9,78,30.05,10.0,East,4.6,-,N/A,,Clear,100,2012-10-14 23:53:00
7:53 PM,70.0,64.0,81,30.04,10.0,ESE,3.5,-,N/A,,Clear,120,2012-10-15 00:53:00
8:53 PM,73.0,64.0,73,30.06,10.0,Calm,Calm,-,N/A,,Clear,0,2012-10-15 01:53:00
9:53 PM,66.0,63.0,90,30.06,10.0,Calm,Calm,-,N/A,,Clear,0,2012-10-15 02:53:00
10:53 PM,66.9,63.0,87,30.06,10.0,Calm,Calm,-,N/A,,Clear,0,2012-10-15 03:53:00
11:53 PM,66.9,63.0,87,30.04,10.0,SW,3.5,-,N/A,,Clear,230,2012-10-15 04:53:00